Wind_Speed
14 15 14 14 14 14 12 11 9 7 8 9 10 11 11 11 12 10 8 8 8 7 8 9 5 3 3 5 6 7 8 10 9 7 7 6 6 5 5 9 9 7 13 15 12 11 9 8 6
12 13 13 13 12 14 12 10 9 8 8 8 9 9 10 10 9 9 8 7 6 6 7 8 8 8 7 6 4 6 7 7 8 7 6 6 5 5 6 4 4 5 6 5 5 5 4 4 2
12 12 12 11 10 11 11 12 9 8 8 9 10 9 8 9 8 7 6 5 5 6 7 7 5 6 7 8 8 7 6 5 6 8 8 8 8 8 7 7 6 5 5 5 5 4 4 3 3
11 11 13 11 9 8 8 10 11 8 8 7 9 8 9 10 10 8 6 4 4 4 4 4 4 4 4 4 5 5 6 7 7 7 7 6 6 7 7 7 7 6 6 6 6 5 4 4 3
9 10 11 11 10 8 6 7 8 9 8 7 7 7 7 7 7 7 7 7 5 3 2 1 1 0 1 3 4 4 4 5 6 7 7 7 8 8 7 7 7 7 6 7 5 4 3 3 3
7 7 8 8 8 7 6 7 6 6 6 6 5 5 5 5 5 4 4 4 4 4 4 2 1 1 2 2 2 2 3 4 5 6 7 7 7 8 7 7 6 6 5 5 3 1 1 1 0
7 7 6 6 6 5 5 5 6 5 4 3 3 2 2 2 3 3 2 1 0 1 1 1 2 2 1 3 4 4 4 4 5 6 6 7 7 7 8 7 6 5 3 2 2 3 5 5 3
9 6 5 4 3 4 4 4 5 5 4 3 2 2 1 1 0 1 2 2 2 2 2 2 2 3 4 4 5 5 6 6 7 7 7 7 7 5 4 2 3 4 5 6 7 7 7 7 7
11 8 6 3 1 2 4 4 4 5 5 4 4 5 4 4 3 2 3 5 6 6 5 5 5 5 4 4 5 6 7 7 8 8 9 9 9 8 6 6 8 9 8 9 10 10 10 9 7
13 11 8 6 5 4 5 6 6 6 6 6 6 6 7 6 5 5 5 5 6 7 8 8 9 8 7 6 6 6 7 7 8 8 9 9 10 10 11 11 10 11 12 11 10 9 9 9 10
16 13 11 10 9 8 8 8 8 7 8 8 8 7 8 8 7 7 7 8 8 9 10 10 10 10 8 6 6 6 7 8 10 10 11 12 13 14 13 11 11 10 11 12 12 11 12 13 16
18 15 14 13 12 12 11 10 9 9 9 10 10 8 9 10 10 10 9 10 11 11 12 13 12 11 10 9 9 9 10 11 12 13 13 15 16 16 13 12 12 12 14 16 17 18 18 20 19
20 18 16 15 15 14 14 13 11 12 10 10 11 11 11 11 12 12 12 13 13 14 14 14 14 14 13 13 12 12 13 14 14 15 15 17 17 17 16 16 16 18 19 19 19 18 19 20 24
22 19 18 17 16 14 15 12 14 15 11 12 11 12 11 12 13 13 15 14 16 16 16 16 15 16 16 15 14 14 15 15 16 16 16 17 18 19 18 20 21 22 22 21 21 22 24 25 27
22 20 18 18 17 14 13 12 18 12 11 10 10 11 13 15 15 16 16 17 18 18 17 18 18 18 18 18 17 18 17 17 17 17 18 19 18 21 22 22 23 24 24 25 27 28 29 30 30
23 21 20 18 16 16 14 12 14 13 11 10 10 11 13 16 18 20 19 19 18 19 20 20 20 21 21 21 21 21 20 20 20 20 19 21 24 26 27 26 26 27 29 30 31 32 32 32 33
25 22 20 19 19 18 17 13 18 16 14 14 13 14 15 17 20 23 23 22 20 21 22 23 23 24 24 24 24 24 23 23 23 23 24 25 26 27 28 30 31 31 32 33 35 37 37 37 38
27 23 22 22 22 22 20 17 19 19 16 16 16 17 17 20 24 27 26 26 26 25 25 25 26 27 27 26 26 26 26 26 26 26 27 28 30 31 33 34 34 36 37 38 39 39 40 41 42
29 27 25 26 27 28 26 22 23 24 18 19 20 18 21 24 28 30 30 29 30 29 30 29 29 30 30 30 30 29 29 28 28 28 29 31 32 34 36 37 38 38 39 40 41 42 42 43 44
32 31 30 30 32 33 30 27 26 27 26 24 23 23 26 28 30 33 34 32 31 34 33 33 33 33 33 32 32 31 32 31 31 31 31 33 34 35 38 39 40 40 41 42 43 44 44 45 46
36 36 35 36 35 36 35 37 29 28 30 30 28 29 29 32 35 37 38 37 34 32 35 37 37 36 36 36 35 34 34 34 35 36 35 35 36 37 39 40 40 42 43 44 45 46 47 48 48
41 40 40 39 39 38 39 49 32 28 31 31 31 33 34 33 39 44 44 43 42 37 38 39 39 38 37 37 36 36 38 39 39 41 40 39 40 40 41 42 44 45 45 46 47 47 48 49 50
44 42 41 41 40 40 44 47 40 32 31 31 33 34 36 38 43 45 46 45 45 41 38 38 38 37 36 36 37 38 39 41 42 44 44 43 43 44 44 45 47 47 47 48 49 50 51 52 52
45 44 43 43 41 44 47 46 44 39 36 35 35 37 39 39 42 40 43 44 41 40 38 36 37 37 34 36 38 38 39 41 43 44 45 45 46 46 46 47 48 48 49 50 51 52 53 54 54
45 45 43 44 46 47 49 50 49 43 47 40 41 41 41 39 39 40 40 42 42 40 37 35 35 36 37 38 39 40 40 42 43 44 46 47 48 49 49 49 50 51 52 52 52 53 54 55 56
45 46 48 51 50 48 50 56 51 44 45 48 51 46 46 45 43 40 40 36 41 45 43 40 38 39 40 41 41 42 42 44 45 46 46 47 48 49 50 51 52 52 53 54 54 55 56 57 59
50 50 48 49 50 54 55 52 50 48 49 50 51 57 52 51 48 35 41 37 36 39 41 42 42 42 42 43 43 44 46 45 45 47 46 46 47 49 51 52 53 54 54 55 56 57 58 60 62
53 52 52 53 53 55 55 54 53 53 56 56 57 56 56 49 37 33 37 39 36 37 38 40 41 42 43 44 46 48 47 47 48 47 47 48 50 51 52 53 54 56 57 58 58 59 61 63 65
54 55 56 56 56 56 56 55 55 58 60 60 62 58 49 39 29 29 34 39 41 43 42 42 43 43 44 45 44 43 44 44 46 48 48 50 51 53 54 55 57 58 59 59 60 62 65 68 70
59 59 61 63 62 61 60 61 58 60 63 62 60 61 49 42 36 30 32 36 42 46 46 45 46 46 47 48 47 46 46 47 48 49 49 51 54 56 57 58 59 60 60 61 64 67 69 70 71
Wind_Direction
103 98 91 83 76 69 71 82 66 69 76 76 78 83 82 83 85 84 80 81 83 68 57 50 53 66 173 191 195 179 178 165 173 189 192 180 189 182 194 205 224 229 222 226 245 252 258 256 261
111 104 95 86 75 70 67 73 86 68 77 83 78 86 91 86 84 82 77 74 77 72 66 62 66 73 77 90 142 193 189 174 179 194 188 176 181 202 197 175 183 185 200 211 235 245 247 248 263
110 106 98 89 76 68 63 62 75 78 77 84 83 83 88 88 88 88 83 79 80 74 65 61 64 81 90 94 98 107 128 159 182 205 205 206 204 208 199 197 197 189 191 192 200 204 212 207 204
112 106 97 93 85 69 52 59 56 68 70 66 74 80 80 80 79 80 81 77 80 78 67 58 69 88 96 98 103 110 119 125 140 156 174 181 183 182 186 189 186 191 195 196 196 206 226 233 249
120 108 98 95 89 75 60 43 59 56 59 68 69 75 74 77 85 87 82 75 66 70 78 80 52 56 98 111 123 141 154 166 175 180 184 191 190 191 198 202 202 208 206 217 211 214 244 275 316
134 113 100 91 89 72 54 45 36 44 57 54 61 65 76 78 82 84 82 77 72 60 54 41 339 272 273 272 249 238 217 202 202 205 205 211 210 208 213 219 228 233 241 255 273 321 37 6 238
161 133 113 93 80 62 41 25 31 28 12 23 40 44 71 84 75 69 75 90 72 70 57 344 320 316 293 270 262 259 258 261 260 252 246 247 250 244 243 248 262 261 244 194 186 182 206 214 157
183 167 153 119 80 45 19 7 1 11 11 317 313 301 304 279 292 336 304 282 271 294 306 282 272 280 276 275 278 282 284 287 289 293 292 289 287 284 280 252 232 215 213 212 208 195 175 173 177
200 188 203 197 196 333 342 345 331 337 344 323 298 283 288 270 259 262 270 272 275 281 283 277 275 270 265 269 276 281 285 289 291 291 287 290 289 287 271 237 224 230 226 192 192 198 201 207 230
211 208 220 238 250 273 302 323 315 313 313 318 315 305 291 297 276 265 270 278 275 269 269 274 276 270 262 260 268 280 292 290 285 278 275 274 277 275 265 256 245 212 211 219 225 232 239 258 280
220 218 227 244 258 270 285 295 294 290 295 312 315 303 291 291 293 280 270 270 271 272 269 269 269 265 263 259 260 267 264 275 279 274 271 268 264 260 261 256 234 235 239 229 235 250 265 279 288
229 228 235 245 255 264 273 280 282 275 280 299 314 306 289 286 284 282 281 275 271 269 268 267 268 257 257 261 271 276 271 272 272 276 271 264 261 258 251 241 248 256 262 270 277 281 284 287 292
233 236 243 249 254 262 270 275 277 273 279 291 295 296 299 290 284 282 278 278 279 274 271 266 262 258 261 265 267 269 271 272 273 274 270 268 257 254 246 250 255 260 266 278 284 282 285 286 290
237 241 244 251 258 263 269 273 271 267 278 282 290 299 305 305 303 288 282 283 277 275 272 270 265 262 263 265 269 269 271 265 268 272 274 268 261 252 251 262 264 268 274 278 281 282 284 289 290
240 244 247 251 256 257 261 267 262 268 267 275 291 303 307 306 306 301 292 279 276 271 268 267 267 265 268 269 271 272 272 266 262 263 269 264 264 260 262 265 270 271 271 274 277 281 282 283 287
238 243 245 249 251 250 256 260 261 262 266 276 288 301 305 307 306 301 297 291 280 273 268 266 263 264 265 269 272 272 277 277 268 258 256 258 261 262 264 269 271 275 274 275 276 279 279 280 281
238 239 244 248 252 254 255 253 265 268 272 276 284 292 301 307 306 297 300 296 286 274 266 263 262 259 261 263 266 269 272 274 274 270 262 258 260 261 263 267 267 269 271 274 276 278 279 279 278
239 242 244 250 253 258 260 261 269 275 281 281 279 286 298 301 299 299 297 288 286 281 273 264 260 260 261 264 266 269 271 273 274 273 271 268 264 263 264 264 263 266 269 272 275 279 280 281 280
241 242 245 251 257 258 264 264 270 277 280 280 282 284 291 297 299 300 294 288 280 279 276 269 265 263 263 263 264 267 271 273 275 275 274 273 271 269 268 268 268 270 272 273 276 278 279 279 280
243 246 249 251 255 261 263 264 269 275 279 281 282 286 290 300 299 298 295 289 286 276 271 273 268 265 263 264 264 266 268 272 274 276 274 272 271 271 271 270 270 272 273 275 276 277 278 279 281
248 250 252 254 257 263 267 265 263 272 277 280 286 286 290 297 300 296 292 289 282 278 270 264 265 264 263 263 264 266 269 274 274 273 274 274 274 273 273 272 272 272 274 275 276 278 279 280 281
250 253 255 258 261 263 267 273 266 270 272 276 281 285 289 293 296 292 289 284 283 279 270 268 269 269 267 266 267 268 270 272 272 271 273 275 276 274 271 270 271 272 274 276 278 279 279 280 281
252 254 257 260 262 264 265 272 276 271 271 274 277 282 286 292 292 289 287 279 274 278 275 267 267 270 267 266 267 269 271 271 269 270 270 271 272 273 271 270 271 273 275 277 278 278 279 280 281
252 255 256 258 261 263 268 272 273 281 282 283 286 288 288 295 295 286 283 280 272 276 275 272 268 267 267 266 267 270 272 273 273 273 273 273 273 273 272 271 271 273 274 275 278 279 279 280 281
251 255 259 259 258 263 267 270 275 283 290 291 288 289 291 297 294 286 281 276 273 274 273 269 268 266 265 267 270 272 272 273 273 273 273 273 272 272 271 270 271 273 275 278 279 278 279 280 281
250 250 253 259 262 264 264 269 278 284 285 289 292 293 296 296 295 284 282 274 265 268 273 274 273 272 271 270 271 273 275 275 273 274 273 274 272 271 270 271 273 274 276 278 278 278 278 279 281
252 253 255 258 260 262 266 272 277 282 285 285 288 295 298 298 296 281 270 272 268 267 269 270 272 272 272 271 273 275 274 274 275 274 273 274 273 272 271 273 274 276 277 277 277 277 278 280 283
252 253 253 255 258 262 268 271 276 280 281 285 289 292 299 300 286 267 267 270 271 273 272 272 273 274 275 274 273 272 272 272 273 273 272 272 273 272 272 273 274 275 275 275 276 276 278 281 283
249 252 254 257 256 259 264 266 273 276 279 284 287 291 295 290 273 262 258 263 268 271 274 275 276 278 278 277 278 279 278 277 276 275 273 272 273 274 274 273 274 275 275 275 275 277 279 281 284
249 251 251 252 256 260 264 267 270 275 278 283 286 288 288 278 273 263 259 261 263 268 270 272 275 276 277 279 280 280 280 282 282 280 279 276 275 274 274 275 276 276 275 274 275 277 280 283 286
Height
5873 5873 5874 5874 5878 5876 5876 5877 5876 5876 5876 5876 5876 5876 5877 5877 5877 5879 5876 5877 5877 5877 5877 5877 5877 5878 5879 5879 5881 5881 5883 5884 5884 5885 5886 5887 5888 5889 5889 5889 5890 5890 5891 5892 5892 5892 5894 5893 5893
5875 5874 5875 5875 5877 5877 5878 5878 5877 5878 5877 5877 5877 5877 5878 5878 5878 5878 5878 5878 5878 5878 5878 5878 5879 5879 5879 5880 5880 5881 5882 5883 5883 5884 5885 5886 5887 5888 5889 5889 5890 5891 5892 5891 5892 5892 5892 5893 5893
5875 5875 5876 5877 5877 5878 5879 5879 5879 5879 5879 5879 5879 5879 5879 5879 5879 5879 5880 5880 5879 5879 5878 5879 5879 5880 5880 5880 5881 5881 5881 5882 5882 5884 5884 5886 5887 5888 5888 5889 5889 5890 5890 5890 5891 5891 5892 5892 5892
5875 5876 5877 5878 5878 5879 5880 5880 5880 5880 5880 5880 5880 5880 5880 5880 5880 5880 5880 5881 5881 5881 5881 5881 5881 5881 5881 5881 5882 5883 5883 5883 5884 5884 5885 5885 5886 5887 5888 5889 5889 5890 5891 5891 5891 5891 5892 5891 5891
5875 5876 5877 5878 5879 5880 5880 5881 5881 5881 5880 5880 5880 5881 5881 5881 5881 5881 5881 5882 5882 5882 5882 5882 5883 5883 5883 5883 5883 5883 5883 5883 5884 5884 5884 5885 5886 5887 5887 5888 5888 5889 5889 5891 5891 5890 5891 5892 5892
5876 5876 5878 5879 5879 5880 5881 5882 5881 5881 5881 5881 5881 5881 5881 5881 5881 5882 5882 5882 5883 5883 5883 5883 5884 5884 5884 5884 5884 5884 5884 5884 5884 5885 5885 5886 5887 5887 5887 5888 5888 5889 5889 5890 5890 5890 5891 5892 5890
5876 5876 5877 5878 5879 5880 5881 5882 5882 5882 5882 5881 5881 5881 5881 5881 5882 5882 5882 5883 5883 5884 5884 5884 5884 5884 5884 5885 5885 5885 5885 5885 5885 5886 5885 5886 5886 5887 5887 5888 5888 5889 5889 5889 5889 5889 5890 5891 5890
5875 5876 5877 5878 5879 5880 5881 5881 5882 5882 5882 5882 5881 5881 5881 5881 5881 5881 5882 5882 5883 5884 5884 5884 5884 5884 5884 5885 5885 5885 5885 5886 5885 5885 5885 5885 5885 5886 5887 5888 5888 5888 5888 5889 5889 5889 5889 5889 5888
5874 5875 5875 5877 5878 5879 5880 5881 5881 5881 5881 5881 5881 5880 5880 5880 5880 5880 5881 5881 5882 5882 5882 5883 5883 5883 5883 5884 5884 5884 5884 5884 5884 5884 5884 5884 5884 5884 5885 5886 5886 5886 5887 5887 5887 5887 5887 5888 5888
5873 5873 5874 5875 5877 5878 5879 5879 5879 5880 5879 5880 5879 5879 5879 5879 5879 5879 5880 5880 5880 5880 5881 5881 5881 5881 5881 5882 5882 5882 5882 5882 5883 5883 5883 5883 5883 5883 5883 5884 5884 5884 5885 5886 5886 5887 5887 5887 5886
5870 5871 5872 5874 5875 5876 5877 5878 5878 5878 5878 5878 5878 5878 5878 5878 5878 5878 5878 5878 5878 5878 5878 5878 5879 5879 5879 5880 5880 5880 5880 5880 5881 5881 5882 5881 5881 5881 5881 5881 5882 5883 5884 5884 5885 5885 5885 5884 5883
5867 5868 5870 5872 5873 5874 5875 5876 5876 5876 5877 5876 5876 5876 5876 5876 5876 5876 5876 5876 5876 5876 5876 5876 5876 5877 5877 5877 5877 5877 5877 5877 5877 5878 5879 5879 5879 5879 5879 5880 5880 5881 5882 5882 5882 5882 5881 5880 5879
5864 5865 5867 5869 5870 5872 5873 5873 5873 5872 5874 5874 5874 5874 5873 5874 5874 5874 5873 5873 5873 5873 5873 5873 5874 5874 5874 5875 5875 5874 5874 5874 5874 5875 5876 5876 5876 5877 5877 5877 5877 5878 5878 5879 5879 5877 5877 5876 5875
5860 5861 5863 5865 5867 5869 5869 5870 5869 5869 5870 5871 5871 5871 5872 5871 5871 5871 5871 5871 5870 5870 5870 5870 5870 5871 5871 5871 5871 5871 5871 5870 5870 5871 5871 5872 5873 5873 5874 5874 5874 5874 5874 5874 5874 5873 5872 5871 5869
5857 5858 5859 5861 5863 5865 5866 5867 5865 5867 5867 5868 5869 5869 5869 5868 5868 5868 5868 5867 5867 5866 5866 5866 5867 5867 5867 5867 5867 5867 5867 5867 5867 5867 5867 5868 5869 5869 5869 5870 5870 5870 5869 5869 5869 5868 5866 5865 5863
5852 5854 5855 5857 5859 5860 5862 5863 5862 5863 5864 5864 5865 5865 5865 5865 5864 5863 5863 5863 5864 5863 5862 5862 5862 5863 5863 5863 5863 5863 5863 5862 5862 5862 5862 5863 5863 5864 5864 5864 5864 5864 5863 5863 5861 5860 5858 5856 5854
5847 5849 5851 5853 5854 5855 5857 5859 5857 5859 5861 5861 5861 5861 5861 5861 5860 5858 5858 5858 5858 5858 5858 5858 5858 5858 5858 5859 5859 5858 5858 5858 5858 5858 5857 5857 5857 5858 5857 5857 5857 5856 5855 5855 5854 5852 5851 5849 5847
5843 5845 5846 5847 5849 5849 5852 5855 5854 5855 5857 5857 5857 5857 5857 5856 5854 5854 5853 5852 5851 5851 5851 5851 5852 5852 5853 5853 5853 5853 5853 5852 5852 5852 5852 5852 5851 5851 5850 5850 5849 5848 5847 5846 5844 5843 5842 5840 5838
5838 5839 5841 5842 5842 5843 5845 5849 5850 5849 5853 5852 5852 5852 5852 5851 5849 5847 5846 5846 5845 5845 5844 5844 5845 5845 5846 5846 5846 5846 5846 5846 5845 5845 5845 5844 5844 5843 5842 5841 5841 5840 5839 5837 5836 5834 5833 5831 5829
5831 5833 5835 5836 5835 5836 5838 5842 5844 5844 5846 5847 5847 5847 5845 5845 5843 5841 5839 5839 5838 5837 5837 5837 5836 5837 5837 5838 5838 5839 5838 5839 5838 5837 5837 5836 5835 5834 5833 5832 5832 5831 5830 5828 5826 5825 5823 5821 5820
5823 5825 5826 5827 5829 5830 5831 5831 5838 5840 5839 5840 5840 5839 5839 5838 5836 5834 5832 5830 5830 5830 5828 5826 5827 5827 5829 5830 5830 5831 5831 5831 5830 5829 5828 5827 5827 5826 5825 5824 5823 5821 5820 5818 5817 5815 5813 5811 5809
5815 5816 5817 5820 5821 5823 5824 5812 5831 5835 5834 5834 5833 5831 5831 5830 5828 5825 5823 5821 5819 5820 5818 5818 5819 5820 5821 5822 5822 5823 5823 5823 5821 5819 5819 5819 5817 5817 5815 5814 5812 5811 5810 5809 5807 5805 5802 5800 5798
5806 5808 5809 5810 5812 5814 5814 5812 5816 5826 5828 5829 5827 5825 5823 5822 5820 5816 5812 5810 5810 5810 5809 5809 5810 5811 5813 5813 5813 5813 5813 5812 5811 5810 5809 5808 5807 5805 5805 5804 5803 5801 5800 5798 5796 5794 5792 5790 5787
5796 5797 5799 5800 5802 5804 5805 5808 5803 5813 5818 5819 5819 5816 5814 5813 5809 5806 5802 5800 5801 5802 5801 5800 5801 5802 5803 5803 5803 5803 5803 5802 5801 5800 5799 5798 5797 5795 5795 5793 5792 5790 5789 5787 5785 5783 5781 5778 5776
5785 5787 5788 5790 5790 5795 5795 5796 5795 5806 5801 5808 5806 5806 5804 5803 5799 5796 5794 5792 5791 5792 5791 5791 5792 5793 5793 5793 5793 5793 5792 5791 5790 5789 5788 5787 5786 5785 5783 5782 5780 5779 5777 5776 5774 5771 5769 5766 5763
5773 5776 5777 5774 5779 5784 5784 5782 5789 5797 5797 5793 5789 5793 5794 5790 5789 5787 5785 5782 5781 5781 5782 5783 5783 5783 5783 5783 5783 5782 5781 5780 5779 5777 5776 5775 5775 5773 5772 5771 5769 5768 5766 5764 5761 5759 5756 5753 5750
5762 5764 5768 5764 5767 5767 5774 5780 5781 5783 5785 5785 5783 5778 5779 5778 5775 5775 5774 5773 5772 5772 5772 5772 5772 5772 5772 5772 5772 5771 5769 5768 5767 5765 5764 5763 5763 5761 5760 5759 5758 5756 5753 5751 5748 5745 5743 5740 5737
5747 5753 5752 5752 5754 5754 5762 5765 5771 5773 5771 5771 5770 5769 5767 5766 5765 5763 5765 5765 5764 5763 5762 5762 5762 5762 5762 5761 5760 5759 5758 5757 5756 5754 5753 5751 5750 5749 5748 5746 5745 5742 5740 5737 5735 5732 5729 5726 5722
5734 5738 5739 5740 5740 5741 5746 5756 5763 5761 5760 5760 5758 5760 5759 5756 5755 5755 5756 5755 5755 5753 5753 5753 5752 5752 5751 5749 5748 5747 5746 5744 5743 5742 5741 5739 5738 5736 5735 5733 5731 5729 5726 5724 5721 5718 5715 5711 5707
5719 5725 5724 5722 5727 5728 5733 5742 5753 5752 5748 5750 5748 5746 5749 5745 5744 5746 5745 5745 5743 5742 5742 5743 5742 5740 5739 5738 5737 5736 5734 5733 5732 5731 5729 5727 5725 5723 5722 5720 5718 5716 5713 5710 5707 5703 5699 5695 5691